Tracking 35334 objects as of 13-Sep-2026
HD Live streaming from Space Station
objects crossing your sky now

GLOBALSTAR M040

Track GLOBALSTAR M040 now!
10-day predictions
GLOBALSTAR M040 is classified as:


NORAD ID: 25622
Int'l Code: 1999-004B
Launch date: February 9, 1999
Source: Globalstar (GLOB)
Launch site: TYURATAM MISSILE AND SPACE COMPLEX (TTMTR)
Your satellite tracking list
Your tracking list is empty




NASA's NSSDC Master Catalog

Two Line Element Set (TLE):
1 25622U 99004B   26256.05376799 -.00000079  00000-0  13621-3 0  9999
2 25622  51.9902 119.2395 0000704  10.2136 140.6941 12.62038584272431
Source of the keplerian elements: AFSPC